Flag for Germany Weather past 2 weeks in Neuburg an der Donau, Bavaria, Germany

Now
32 °F

Chilly.


Feels Like: 24 °F
Forecast: 9 / 25 °F
Wind: 10 mph from West

Location: Neuburg / Donau

Current Time: Feb 2, 2015 at 2:21:14 AM

Latest Report: Feb 2, 2015 at 1:20 AM


Visibility: N/A

Pressure: 29.39 "Hg

Humidity: 93%

Dew point: 30 °F

Location of Neuburg an der DonauLocation

Historic Weather in Neuburg an der Donau — Graph

°F

Neuburg an der Donau temperature yesterday

Maximum temperature yesterday: 36 °F (at 2:20 PM)
Minimum temperature yesterday: 23 °F (at 6:20 AM)
Average temperature yesterday: 30 °F

Past Weeks' High & Low Weather Summary

 TemperatureHumidityPressure
High39 °F (Jan 29, 3:20 PM)100% (Jan 18, 1:20 AM)30.36 "Hg (Jan 18, 1:20 AM)
Low23 °F (Feb 1, 6:20 AM)65% (Jan 26, 3:20 PM)28.74 "Hg (Jan 30, 4:20 AM)
Average33 °F91%29.79 "Hg
* Reported Jan 18 1:20 AM — Feb 2 1:20 AM, Neuburg an der Donau, Weather by CustomWeather, © 2014

Note: Actual official high and low records may vary slightly from our data, if they occured in-between our weather recording intervals... More about our weather records

Advertising

Neuburg an der Donau weather history for previous 24 hours

 ConditionsComfort  
Time TempWeatherWind HumidityBarometerVisibility
1:20 AM
Feb 2
32 °FChilly.10 mph93%29.39 "HgN/A
12:20 AM30 °FChilly.5 mph100%29.39 "HgN/A
11:20 PM
Feb 1
32 °FChilly.6 mph87%29.39 "HgN/A
10:20 PM30 °FChilly.3 mph100%29.39 "HgN/A
9:20 PM30 °FChilly.7 mph100%29.39 "HgN/A
8:20 PM30 °FChilly.5 mph93%29.39 "HgN/A
7:20 PM30 °FChilly.6 mph93%29.36 "HgN/A
6:20 PM30 °FChilly.3 mph93%29.36 "HgN/A
5:20 PM32 °FChilly.3 mph87%29.33 "HgN/A
4:20 PM32 °FChilly.9 mph87%29.30 "HgN/A
3:20 PM32 °FChilly.13 mph87%29.30 "HgN/A
2:20 PM36 °FChilly.10 mph75%29.27 "HgN/A
1:20 PM34 °FChilly.12 mph87%29.27 "HgN/A
12:20 PM32 °FChilly.6 mph93%29.27 "HgN/A
11:20 AM32 °FChilly.12 mph93%29.27 "HgN/A
10:20 AM32 °FChilly.7 mph87%29.24 "HgN/A
9:20 AM28 °FChilly.1 mph100%29.21 "HgN/A
8:20 AM28 °FChilly.1 mph93%29.21 "HgN/A
7:20 AM23 °FCold.2 mph100%29.21 "HgN/A
6:20 AM23 °FCold.2 mph100%29.18 "HgN/A
5:20 AM27 °FChilly.2 mph100%29.18 "HgN/A
4:20 AM28 °FChilly.3 mph93%29.18 "HgN/A
3:20 AM28 °FChilly.2 mph100%29.18 "HgN/A
2:20 AM30 °FChilly.6 mph93%29.18 "HgN/A
Weather by CustomWeather, © 2014

See weather overviewHow to use our weather pages